Location: Artiguedieu
(43.5000°N, 0.5454°E)
Time: 12:27:05
(UTC+00:00)

Vanguard 2 - All Passes

Search period start: 04 August 2021 00:00
Search period end: 14 August 2021 00:00
Orbit: 552 x 2937 km, 32.9° (Epoch: 03 August)

Date Brightness Start Highest point End Pass type
(mag) Time Alt. Az. Time Alt. Az. Time Alt. Az.
04 Aug - 03:07:31 10° S 03:08:17 10° SSE 03:09:04 10° SSE visible
04 Aug - 05:12:20 10° SW 05:15:37 22° S 05:19:38 10° ESE daylight
04 Aug - 07:19:28 10° WSW 07:23:23 22° S 07:28:43 10° SE daylight
04 Aug - 09:29:07 10° SW 09:31:52 12° SSW 09:35:03 10° S daylight
05 Aug - 03:23:36 10° SSW 03:25:43 14° SSE 03:27:53 10° SE visible
05 Aug - 05:29:50 10° SW 05:33:08 22° S 05:37:11 10° SE daylight
05 Aug - 07:37:27 10° SW 07:41:00 18° SSW 07:45:35 10° SSE daylight
06 Aug - 03:40:34 10° SSW 03:43:11 17° S 03:45:54 10° SE visible
06 Aug - 05:47:27 10° SW 05:50:40 21° S 05:54:36 10° SE daylight
06 Aug - 07:55:54 10° SW 07:58:38 14° SSW 08:01:52 10° SSE daylight
07 Aug - 03:57:49 10° SW 04:00:40 19° S 04:03:39 10° SE visible
07 Aug - 06:05:14 10° SW 06:08:13 18° S 06:11:47 10° SE daylight
08 Aug - 02:08:32 10° SSW 02:10:41 13° SSE 02:12:41 10° SE visible
08 Aug - 04:15:16 10° SW 04:18:10 19° S 04:21:14 10° SE visible
08 Aug - 06:23:18 10° SW 06:25:46 15° SSW 06:28:38 10° SSE daylight
09 Aug - 02:25:21 10° SSW 02:28:12 16° S 02:30:47 10° SE visible
09 Aug - 04:32:52 10° SW 04:35:41 18° S 04:38:40 10° SE daylight
09 Aug - 06:42:07 10° SSW 06:43:20 11° SSW 06:44:37 10° S daylight
10 Aug - 00:36:13 10° S 00:37:59 11° SSE 00:39:36 10° SE night (unlit)
10 Aug - 02:42:33 10° SW 02:45:43 19° S 02:48:35 10° SE visible
10 Aug - 04:50:39 10° SW 04:53:12 16° S 04:55:53 10° SSE daylight
11 Aug - 00:52:16 10° SSW 00:55:34 15° SSE 00:58:19 10° SE night (unlit)
11 Aug - 02:59:57 10° SW 03:03:14 20° S 03:06:12 10° SE visible
11 Aug - 05:08:43 10° SW 05:10:41 13° SSW 05:12:45 10° SSE daylight
11 Aug - 23:04:40 10° SSE 23:04:58 10° SSE 23:05:16 10° SSE night (unlit)
12 Aug - 01:09:06 10° SW 01:13:08 19° S 01:16:22 10° SE night (unlit)
12 Aug - 03:17:31 10° SW 03:20:45 20° S 03:23:40 10° SE visible
12 Aug - 23:18:45 10° SSW 23:22:37 15° SSE 23:25:46 10° SE night (unlit)
13 Aug - 01:26:17 10° SW 01:30:42 22° S 01:34:10 10° SE visible
13 Aug - 03:35:15 10° SW 03:38:13 18° SSW 03:40:59 10° SSE visible
13 Aug - 23:35:03 10° SSW 23:40:15 19° SSE 23:44:11 10° ESE night (unlit)
